Regional Weather Roundup
Issued by NWS Charleston, SC

Current Version | Previous Version | Graphics & Text | Print | Product List | Glossary On
Versions: 1 2 3 4 5 6 7 8 9 10 11 12 13 14 15 16 17 18 19 20 21 22 23 24 25 26 27 28 29 30 31 32 33 34 35 36 37 38 39 40 41 42 43 44 45 46 47 48 49 50
130
ASUS42 KCHS 120913
RWRCHS

REGIONAL WEATHER ROUNDUP
NATIONAL WEATHER SERVICE CHARLESTON SC
400 AM EST FRI FEB 12 2016

NOTE: "FAIR" INDICATES FEW OR NO CLOUDS BELOW 12,000 FEET WITH NO
SIGNIFICANT WEATHER AND/OR OBSTRUCTIONS TO VISIBILITY.

NOT ALL STATIONS ARE QUALITY CONTROLLED BY THE NATIONAL
WEATHER SERVICE. USE DATA WITH CAUTION...ESPECIALLY
DEWPOINT OBSERVATIONS.

SCZ027-030-031-034>040-042>050-121000-
...SOUTHEAST SOUTH CAROLINA...

CITY           SKY/WX    TMP DP  RH WIND       PRES   REMARKS
N CHARLESTON   MOCLDY    46  38  73 NE6       30.16F
WATERFRONT PRK   N/A     48  43  82 NE5       30.01F
MOUNT PLEASANT CLOUDY    46  37  71 CALM      30.16F
JOHNS ISLAND   FAIR      46  41  81 NE5       30.16F
PINOPOLIS        N/A     45  36  70 E5        30.08F
MONCKS CORNER  CLOUDY    41  30  65 CALM      30.17F
SUMMERVILLE    PTSUNNY   45  36  70 CALM      30.17F
BEAUFORT MCAS  CLEAR     43  40  89 CALM      30.16F
BEAUFORT ARPT  FAIR      43  43 100 CALM      30.15F
HILTON HEAD IS PTCLDY    45  45 100 S3        30.16F
WALTERBORO     SUNNY     43  37  81 E3        30.16F
ALLENDALE      FAIR      41  36  81 CALM      30.16R

...SOUTHERN MIDLANDS AND PEE DEE...

CITY           SKY/WX    TMP DP  RH WIND       PRES   REMARKS
GEORGETOWN     CLOUDY    46  34  61 E3        30.20S
KINGSTREE      CLOUDY    39  32  75 E3        30.19F
ORANGEBURG     CLOUDY    44  35  70 NE3       30.17S
BARNWELL       CLOUDY    43  36  75 CALM      30.16F
AIKEN          CLOUDY    36  30  80 CALM      30.18F
MANNING        CLOUDY    41  32  70 CALM      30.18S
COLUMBIA       MOCLDY    35  29  78 CALM      30.17F
SUMTER         CLOUDY    34  28  80 NE6       30.17S WCI  29
FLORENCE       CLEAR     32  28  85 NE8       30.21F WCI  25
MYRTLE BEACH   CLOUDY    48  32  53 E12       30.23S
N MYRTLE BEACH CLOUDY    41  33  73 NE7       30.21S

$$

GAZ063-065-086>088-099>101-113>116-118-119-134>141-150-121000-
...SOUTHEAST GEORGIA...

CITY           SKY/WX    TMP DP  RH WIND       PRES   REMARKS
SAVANNAH ARPT  PTCLDY    44  41  89 CALM      30.15F
HUNTER AAF     CLOUDY    41  41 100 S5        30.12F
FORT STEWART   CLOUDY    44  42  90 CALM      30.13F
STATESBORO     CLEAR     40  40  97 CALM      30.15S
SYLVANIA       MOSUNNY   37  37  99 CALM      30.15F
CLAXTON        FAIR      39  39 100 CALM      30.15S

...CSRA...CENTRAL AND FAR SOUTHEAST GEORGIA...

CITY           SKY/WX    TMP DP  RH WIND       PRES   REMARKS
THOMSON        MOCLDY    35  35  99 CALM      30.19F
AUGUSTA-BUSH   CLOUDY    40  35  83 CALM      30.16F
AUGUSTA-DANIEL MOCLDY    45  30  55 CALM      30.15F
SWAINSBORO     CLOUDY    41  36  81 CALM      30.14S
VIDALIA        CLOUDY    43  41  93 CALM      30.14S
EASTMAN        CLOUDY    46  40  80 CALM      30.15F
HAZLEHURST     CLOUDY    56  53  89 SW5       30.12F
ALMA           CLOUDY    55  52  89 S5        30.14F
WAYCROSS       CLOUDY    56  56  97 SW5       30.16F
JESUP          CLOUDY    55  54  94 SW5       30.16S
BAXLEY         CLOUDY    55  54  94 SW3       30.14S
BRUNSWICK      MOCLDY    52  50  93 SW8       30.18S
SAINT SIMONS   CLOUDY    52  51  97 SW6       30.17F

$$

SCZ027-028-034-036>038-045-046-048>050-GAZ119-141-121000-
...LAKE AND SUPPLEMENTAL COASTAL OBSERVATIONS...

STATION/POSITION TIME  TEMP    WIND        PRES    WAVE   SWELL
                       AIR SEA DIR/SP/G            HT/PER HT/PER/DIR
                 (UTC) (F)     (DEG/KT/KT) (MB)    (FT/S) (FT/S/D)
WINYAH BAY       0745   48      90/  6     1021.0
LAKE MURRAY      0800   36      CALM  /  3 1021.7S
ACE BASIN NERRS  NOT AVBL
FORT PULASKI     0800   48 50  210/  3/  4 1021.6F
SAPELO ISLAND    0800   50     200/  6     1022.0S

$$

ANZ835-935-AMZ111-154-330-350-352-354-370-450-454-472-121000-
...C-MAN AND BUOY OBSERVATIONS...

STATION/POSITION TIME  TEMP    WIND        PRES    WAVE   SWELL
                       AIR SEA DIR/SP/G            HT/PER HT/PER/DIR
                 (UTC) (F)     (DEG/KT/KT) (MB)    (FT/S) (FT/S/D)
BUOY 41004       0850   61 69  220/  8/ 16 1021.1F   1/ 4   2/ 4
BUOY 41008       0850   54 52  220/ 12/ 12 1021.9F   3/ 6   2/160/ 6
FOLLY BEACH CMAN 0800   50      50/  7/  8 1021.9F
CAPERS NEARSHORE 0808   50      60/ 12/ 16 1021.6F
FRIPP NEARSHORE  0800   52     250/  6/  8 1020.8F


STATION/POSITION TIME  TEMP    WIND        PRES    WAVE   SWELL
                       AIR SEA DIR/SP/G            HT/PER HT/PER/DIR
                 (UTC) (F)     (DEG/KT/KT) (MB)    (FT/S) (FT/S/D)
5E ST. MARYS GA  0851      56                N/A     2/ 5
FRYING PAN BUOY  0800   50 57   60/ 10/ 12 1023.3F
BUOY 41025       0850   40 70   10/ 10/ 14 1025.8F   3/ 8   2/ 70/ 8
CAPE LOOKOUT NC  NOT AVBL
BUOY 41002       0850   56 68   20/  8/ 10   N/A     6/ 7   5/330/ 7
BUOY 41010       0820   67 72              1024.5F
ST AUGUSTINE FL  0900   51 56  210/  5/  6 1024.0F


$$




USA.gov is the U.S. government's official web portal to all federal, state and local government web resources and services.